Current weather by "City, St" or "zip code"  
 

Current Conditions: Taunton, Taunton Municipal Airport, MA

Overcast


64.0 F

Last Updated on Sep 18 2020, 12:52 pm EDT
Humidity: 58%
Wind Speed: N 11.5 G 21.9 mph
Barometer 29.97 in
Dewpoint: 48.9 F
Visibility: 10.00 mi
Precip: --
Heat Index: NA
Wind Chill: NA
Current conditions at:

Taunton, Taunton Municipal Airport, MA (KTAN)

Lat: 41.87556 Lon: 71.02111

Local Radar Image active severe weather and emergency alerts image image weather storm and storm spotter reports image weather observation monitoring service image
Local
Radar
Active
Alerts
Storm Reports Obs
Monitoring

Sign-up For Email & Text Message Weather Alert Notification Services



Advertise Here

Observation History for Taunton, Taunton Municipal Airport, MA


Time Wind
(mph)
Vis
(mi)
Weather Precip (in) Temperature (F) Relative
Humidity
Wind
Chill
(F)
Heat
Index
(F)
Pressure
Air Dwpt altimeter
(in)
sea level
(mb)
Rmks
12:52 pm EDT N 11.5 G 21.9 10.00 Overcast -- 64.0 48.9 58% NA NA 29.97 1014.8
11:52 am EDT N 10.4 G 21.9 10.00 Overcast -- 63.0 48.0 58% 62 NA 29.97 1014.8
10:52 am EDT N 8.1 G 18.4 10.00 Overcast -- 62.0 50.0 65% 61 NA 29.98 1015.2
9:52 am EDT 4.6 G 19.6 10.00 Overcast -- 62.0 51.1 67% 62 NA 29.97 1015.0
8:52 am EDT 5.8 10.00 Overcast -- 62.0 50.0 65% 62 NA 29.97 1015.0
7:52 am EDT 6.9 10.00 Overcast -- 62.0 52.0 70% 62 NA 29.96 1014.6
6:52 am EDT 5.8 10.00 Overcast -- 62.0 54.0 75% 62 NA 29.95 1014.1
5:52 am EDT 10.00 Overcast -- 63.0 53.1 70% NA NA 29.94 1013.7
4:52 am EDT 6.9 10.00 Overcast -- 63.0 54.0 73% 63 NA 29.93 1013.4
3:52 am EDT 5.8 10.00 Overcast -- 63.0 57.9 84% 63 NA 29.93 1013.4
2:52 am EDT 3.5 10.00 Mostly Cloudy -- 62.0 55.9 80% NA NA 29.94 1013.9
1:52 am EDT N 0.0 10.00 Fair -- 63.0 55.9 78% NA NA 29.96 1014.3
12:52 am EDT 3.5 10.00 Fair -- 63.0 57.9 84% NA NA 29.98 1015.1
11:52 pm EDT N 4.6 10.00 Fair -- 64.0 61.0 90% NA NA 29.98 1015.3
10:52 pm EDT N 0.0 3.00 Fog/Mist -- 62.0 59.0 90% NA NA 29.98 1015.0
9:52 pm EDT N 0.0 8.00 Fair -- 63.0 60.1 90% NA NA 29.98 1015.2
8:52 pm EDT N 0.0 10.00 Fair -- 68.0 63.0 84% NA NA 29.99 1015.3
7:52 pm EDT SW 5.8 10.00 Fair -- 70.0 63.0 79% NA NA 29.98 1015.2
6:52 pm EDT SW 3.5 10.00 Fair -- 71.0 62.1 73% NA NA 29.97 1014.8
5:52 pm EDT S 4.6 10.00 Fair -- 73.0 62.1 69% NA NA 29.96 1014.4
4:52 pm EDT SW 11.5 10.00 A Few Clouds -- 74.0 61.0 64% NA NA 29.97 1014.6
3:52 pm EDT S 12.7 G 18.4 10.00 Fair -- 75.0 61.0 62% NA NA 29.97 1014.9
2:52 pm EDT SW 11.5 10.00 Fair -- 76.0 61.0 60% NA NA 29.98 1015.1
1:52 pm EDT SW 12.7 G 18.4 10.00 Fair -- 77.0 59.0 54% NA NA 29.98 1015.2

Regional Weather Observation


East Milton, MA (KMQE)

NULL
61.0 F

Boston, Logan International Airport, MA (KBOS)

Overcast
62.0 F

Taunton, Taunton Municipal Airport, MA (KTAN)

Overcast
64.0 F

Pawtucket, North Central State Airport, RI (KSFZ)

Overcast
64.0 F

Laurence G Hanscom Field Airport, MA (KBED)

Mostly Cloudy
62.0 F

Worcester, Worcester Regional Airport, MA (KORH)

Overcast
59.0 F